Plymouth, NH

7:58 AM EST on February 14, 2016 (GMT -0500)
Plymouth

Weather History for K1P1 - January, 2013

Change the Weather History Date:

Saturday, January 19, 2013

  Actual Average (KLCI) Record (KLCI)
Temperature  
Mean Temperature 18 °F -  
Max Temperature 30 °F 30 °F - (-1)
Min Temperature 5 °F 11 °F - (-1)
Degree Days  
Heating Degree Days 48    
Moisture  
Dew Point 14 °F    
Average Humidity 78    
Maximum Humidity 91    
Minimum Humidity 58    
Precipitation  
Precipitation 0.00 in - - ()
Sea Level Pressure  
Sea Level Pressure 30.04 in    
Wind  
Wind Speed 0 mph (North)    
Max Wind Speed 0 mph    
Max Gust Speed -    
Visibility 9 miles    
Events Snow    
Averages and records for this station are not official NWS values.
T = Trace of Precipitation, MM = Missing Value Source: NWS Daily Summary

Daily Weather History Graph

Daily Weather History Graph

Search for Another Location

Airport or City:

Trip Planner

Search our weather history database for the weather conditions in past years. The results will help you decide how hot, cold, wet, or windy it might be!

Date:

Astronomy

Jan. 19, 2013 Rise Set
Actual Time 7:15 AM EST 4:40 PM EST
Civil Twilight 6:43 AM EST 5:12 PM EST
Nautical Twilight 6:08 AM EST 5:47 PM EST
Astronomical Twilight 5:34 AM EST 6:21 PM EST
Moon 11:07 AM EST (1/19) 12:43 AM EST (1/19)
Length of Visible Light 10h 28m
Length of Day
9h 25m
First Quarter, 57% of the Moon is Illuminated
Jan 19
First Quarter
Jan 26
Full
Feb 3
Last Quarter
Feb 10
New
Feb 17
First Quarter

Hourly Weather History & Observations

Time (EST) Temp. Dew Point Humidity Pressure Visibility Wind Dir Wind Speed Gust Speed Precip Events Conditions
12:15 AM 5.7 °F 1.2 °F 82% 30.30 in 10.0 mi Calm Calm - N/A   Unknown
12:35 AM 6.4 °F 1.6 °F 80% 30.29 in 10.0 mi Calm Calm - N/A   Unknown
12:55 AM 7.0 °F 1.9 °F 80% 30.29 in 10.0 mi Calm Calm - N/A   Unknown
1:15 AM 7.3 °F 2.5 °F 81% 30.29 in 10.0 mi Calm Calm - N/A   Unknown
1:35 AM 7.9 °F 3.2 °F 81% 30.27 in 10.0 mi Calm Calm - N/A   Unknown
2:15 AM 9.0 °F 3.9 °F 80% 30.27 in 7.0 mi Calm Calm - N/A Snow Light Snow
2:35 AM 9.1 °F 3.7 °F 79% 30.26 in 10.0 mi Calm Calm - N/A   Unknown
2:55 AM 9.5 °F 3.7 °F 77% 30.25 in 10.0 mi Calm Calm - N/A   Unknown
3:35 AM 10.2 °F 4.1 °F 76% 30.22 in 10.0 mi Calm Calm - N/A   Unknown
3:55 AM 10.4 °F 4.1 °F 76% 30.21 in 10.0 mi Calm Calm - N/A   Unknown
4:15 AM 10.4 °F 4.8 °F 78% 30.20 in 5.0 mi Calm Calm - N/A Snow Light Snow
4:35 AM 10.4 °F 5.5 °F 81% 30.19 in 2.0 mi Calm Calm - N/A Snow Light Snow
4:55 AM 10.6 °F 6.8 °F 85% 30.18 in 2.0 mi Calm Calm - N/A Snow Light Snow
5:15 AM 10.6 °F 7.3 °F 87% 30.16 in 2.0 mi Calm Calm - N/A Snow Light Snow
5:35 AM 10.8 °F 7.7 °F 87% 30.16 in 2.5 mi Calm Calm - N/A Snow Light Snow
5:55 AM 11.3 °F 8.2 °F 87% 30.15 in 10.0 mi Calm Calm - N/A   Unknown
6:15 AM 11.3 °F 8.4 °F 88% 30.16 in 10.0 mi Calm Calm - N/A   Unknown
6:35 AM 11.7 °F 8.6 °F 88% 30.15 in 10.0 mi Calm Calm - N/A   Unknown
6:55 AM 12.0 °F 9.0 °F 88% 30.14 in 10.0 mi Calm Calm - N/A   Unknown
8:15 AM 13.1 °F 9.7 °F 86% 30.11 in 10.0 mi Calm Calm - N/A   Unknown
8:55 AM 14.0 °F 10.4 °F 86% 30.11 in 10.0 mi Calm Calm - N/A   Unknown
9:15 AM 14.9 °F 11.1 °F 85% 30.10 in 10.0 mi Calm Calm - N/A   Unknown
9:35 AM 15.8 °F 11.5 °F 83% 30.10 in 10.0 mi Calm Calm - N/A   Unknown
9:55 AM 17.2 °F 12.2 °F 81% 30.09 in 10.0 mi Calm Calm - N/A   Unknown
10:35 AM 19.0 °F 13.6 °F 79% 30.08 in 10.0 mi Calm Calm - N/A   Unknown
10:55 AM 20.3 °F 14.2 °F 77% 30.06 in 10.0 mi Calm Calm - N/A   Unknown
11:15 AM 21.9 °F 14.7 °F 74% 30.04 in 10.0 mi Calm Calm - N/A   Unknown
11:35 AM 22.8 °F 15.1 °F 72% 30.02 in 10.0 mi Calm Calm - N/A   Unknown
12:15 PM 25.5 °F 15.8 °F 67% 29.99 in 10.0 mi Calm Calm - N/A   Unknown
1:15 PM 27.5 °F 15.8 °F 61% 29.96 in 10.0 mi Calm Calm - N/A   Unknown
1:35 PM 28.0 °F 15.8 °F 60% 29.96 in 10.0 mi Calm Calm - N/A   Unknown
1:55 PM 28.8 °F 16.0 °F 59% 29.96 in 10.0 mi Calm Calm - N/A   Unknown
2:15 PM 29.3 °F 16.5 °F 59% 29.96 in 10.0 mi Calm Calm - N/A   Unknown
2:55 PM 30.0 °F 17.2 °F 59% 29.95 in 10.0 mi Calm Calm - N/A   Unknown
3:35 PM 30.2 °F 17.1 °F 58% 29.94 in 10.0 mi Calm Calm - N/A   Unknown
3:55 PM 30.4 °F 18.1 °F 60% 29.94 in 10.0 mi Calm Calm - N/A   Unknown
4:15 PM 30.2 °F 18.3 °F 61% 29.94 in 10.0 mi Calm Calm - N/A   Unknown
4:35 PM 30.2 °F 18.3 °F 61% 29.94 in 10.0 mi Calm Calm - N/A   Unknown
4:55 PM 30.0 °F 19.0 °F 64% 29.94 in 10.0 mi Calm Calm - N/A   Unknown
5:15 PM 29.8 °F 20.5 °F 68% 29.94 in 10.0 mi Calm Calm - N/A   Unknown
5:35 PM 29.3 °F 20.7 °F 70% 29.94 in 10.0 mi Calm Calm - N/A   Unknown
5:55 PM 28.8 °F 22.5 °F 77% 29.94 in 10.0 mi Calm Calm - N/A   Unknown
6:15 PM 28.6 °F 22.1 °F 77% 29.94 in 10.0 mi Calm Calm - N/A   Unknown
6:35 PM 28.8 °F 22.8 °F 78% 29.94 in 10.0 mi Calm Calm - N/A   Unknown
6:55 PM 28.4 °F 21.0 °F 74% 29.94 in 10.0 mi Calm Calm - N/A   Unknown
7:15 PM 28.2 °F 23.0 °F 81% 29.94 in 10.0 mi Calm Calm - N/A   Unknown
7:35 PM 27.3 °F 22.8 °F 83% 29.93 in 10.0 mi Calm Calm - N/A   Unknown
7:55 PM 27.5 °F 22.1 °F 80% 29.93 in 10.0 mi Calm Calm - N/A   Unknown
8:15 PM 26.8 °F 22.6 °F 84% 29.93 in 10.0 mi Calm Calm - N/A   Unknown
8:35 PM 26.6 °F 22.1 °F 83% 29.92 in 10.0 mi Calm Calm - N/A   Unknown
9:15 PM 26.2 °F 22.8 °F 87% 29.91 in 10.0 mi Calm Calm - N/A   Unknown
9:35 PM 26.1 °F 22.8 °F 88% 29.90 in 10.0 mi Calm Calm - N/A   Unknown
9:55 PM 26.1 °F 22.5 °F 86% 29.89 in 10.0 mi Calm Calm - N/A   Unknown
10:15 PM 26.2 °F 22.5 °F 86% 29.88 in 10.0 mi Calm Calm - N/A   Unknown
10:35 PM 26.2 °F 22.5 °F 86% 29.87 in 10.0 mi Calm Calm - N/A   Unknown
10:55 PM 26.1 °F 22.8 °F 88% 29.86 in 10.0 mi Calm Calm - N/A   Unknown
11:15 PM 26.1 °F 23.0 °F 88% 29.84 in 10.0 mi Calm Calm - N/A   Unknown
11:35 PM 26.1 °F 23.0 °F 88% 29.83 in 10.0 mi Calm Calm - N/A   Unknown
11:55 PM 25.9 °F 23.5 °F 91% 29.81 in 10.0 mi Calm Calm - N/A   Unknown